Location: Joffre
(52.3362°N, 113.5373°W)
Time: 10:36:38
(UTC+00:00)

N. Korean satellite - Pass Details

Date: 08 December 2021
Orbit: 447 x 491 km, 97.3° (Epoch: 20 January)

Event Time Altitude Azimuth Distance (km) Brightness Sun altitude
Rises 13:50:57 0° 4° (N) 2,469 10.0 -14.2°
Reaches altitude 10° 13:53:12 10° 351° (N) 1,589 8.9 -13.9°
Maximum altitude 13:56:03 26° 294° (WNW) 936 7.4 -13.5°
Drops below altitude 10° 13:58:54 10° 237° (WSW) 1,577 8.8 -13.1°
Sets 14:01:07 0° 224° (SW) 2,445 9.9 -12.8°
